Theta_e
303 303 303 303 303 304 304 304 305 305 306 306 306 306 306 307 308 312 320 325 326 326 326 326 324 321 320 318 317 317 315 316 324 331 332 329 324 326 325 327 322 322 328 326 333 339 339 338 336 340 341 340 339 338 339 337 337 338 338 333 323 326 329 334 344 340 339 343 344 343 343 343 344 343 344 345 345 346 345 344 343 343 345 346 347 349 349 351
303 303 303 303 303 304 304 304 304 304 305 305 306 306 306 307 308 313 323 326 326 325 325 326 323 320 319 316 315 317 318 320 326 329 328 328 328 327 324 324 323 323 327 331 336 338 336 335 334 339 340 339 337 336 337 335 337 336 337 330 326 333 334 336 340 340 342 341 342 343 343 344 343 346 348 348 347 345 345 347 346 346 346 347 348 349 349 350
303 303 303 303 304 304 304 304 304 304 305 305 306 306 307 307 308 317 325 325 324 324 326 325 321 318 317 316 317 318 321 326 330 328 326 326 328 328 325 323 322 323 326 331 334 336 336 334 334 338 338 337 334 333 333 334 334 334 334 331 330 335 336 337 339 339 341 341 342 343 343 344 342 345 348 345 348 349 348 348 348 348 346 346 347 349 349 350
303 303 303 303 304 304 304 304 304 304 304 305 306 306 307 306 310 320 325 324 323 323 325 323 319 317 315 315 317 319 324 331 331 328 330 326 325 326 324 321 321 322 325 329 334 335 333 333 334 335 337 337 335 334 333 332 333 333 335 334 334 334 336 337 339 338 340 340 341 341 342 342 341 342 345 344 346 347 349 348 349 348 347 347 346 347 349 350
303 303 303 303 304 304 304 304 305 304 304 305 305 306 307 306 312 323 325 322 322 323 323 320 317 316 315 316 317 322 329 329 328 335 334 329 324 323 322 321 320 322 326 330 334 336 333 333 333 335 337 337 335 332 333 333 332 333 334 335 336 335 337 338 337 337 340 339 340 340 341 344 343 344 343 347 353 351 346 347 348 347 346 346 345 346 348 349
303 303 303 303 304 304 304 304 304 305 305 305 305 306 306 306 315 324 323 321 323 323 321 317 316 315 316 318 318 324 331 323 328 337 330 330 326 323 321 321 320 323 329 331 335 337 331 331 332 334 337 337 334 331 332 332 331 332 334 336 336 336 338 338 337 338 338 341 341 341 343 344 345 347 345 348 355 353 344 346 347 346 346 346 346 346 346 346
302 303 303 303 303 304 304 304 305 305 305 305 305 306 306 307 317 324 321 321 323 321 319 316 316 314 314 320 324 328 330 325 330 332 327 326 324 324 321 320 321 323 331 334 334 335 329 328 331 334 336 336 333 331 331 331 331 334 335 335 336 337 338 337 337 338 338 338 339 341 342 344 345 347 347 348 351 350 344 347 345 345 346 345 345 345 345 347
303 303 303 303 304 304 304 304 305 305 305 305 305 306 306 308 319 323 319 320 322 320 318 315 316 314 314 323 330 331 327 326 332 331 326 323 321 322 320 321 322 324 332 335 334 333 328 329 331 335 336 332 331 331 331 331 333 336 334 335 337 337 337 337 338 338 337 338 340 342 343 343 345 346 348 347 348 347 345 345 344 345 344 344 345 345 347 347
302 303 303 303 304 304 304 304 305 305 305 306 305 306 306 308 320 322 317 319 320 318 317 315 316 314 315 323 329 327 328 330 332 330 324 323 321 319 320 325 324 326 330 332 333 332 329 329 333 336 335 333 331 331 331 331 332 335 335 337 337 338 338 337 338 338 339 340 341 342 341 342 342 344 348 347 346 345 345 344 344 344 344 345 346 345 347 347
302 303 303 303 304 304 304 304 305 305 305 306 305 306 306 308 320 321 316 318 317 316 315 314 315 314 317 325 325 323 330 333 332 329 325 324 322 322 326 328 326 327 330 331 333 331 328 331 334 334 333 332 332 331 331 331 333 335 334 335 337 338 339 338 337 337 337 339 341 341 341 342 340 343 348 347 345 345 345 345 344 346 345 345 346 347 348 348
303 303 303 304 304 304 305 304 305 305 305 306 305 306 306 307 319 321 316 317 316 315 313 313 313 314 321 328 324 325 330 333 334 332 328 325 323 327 329 328 328 328 329 331 331 331 329 332 335 334 333 332 331 329 329 332 335 335 334 337 336 337 338 338 339 336 338 339 339 342 342 343 341 343 347 346 346 345 345 345 346 346 346 346 348 347 349 350
303 303 304 303 304 303 305 304 305 305 305 306 306 306 307 306 316 321 316 315 316 315 313 313 311 316 325 328 325 328 330 331 332 333 330 325 324 327 327 329 328 329 329 329 329 330 330 331 334 333 332 331 329 329 330 334 336 335 336 337 336 338 339 338 339 338 338 338 339 342 340 341 344 342 346 346 345 347 346 346 346 346 347 349 349 348 350 351
303 303 304 303 304 304 305 304 305 305 305 306 306 307 307 307 316 321 317 315 317 314 314 314 314 320 329 330 328 327 327 332 332 331 332 328 324 325 326 327 328 327 328 328 328 329 329 333 335 331 332 331 329 330 331 333 336 335 336 336 336 337 337 338 339 338 339 339 340 340 329 333 346 343 343 346 346 346 346 347 347 347 348 349 350 349 352 351
303 303 303 304 304 304 304 304 305 305 305 306 306 307 307 308 317 322 318 316 316 315 316 317 319 327 331 329 333 327 326 333 332 332 332 331 326 324 325 327 328 326 327 329 329 328 330 332 333 331 333 331 331 331 332 334 335 337 335 336 338 328 329 341 339 337 340 338 342 339 325 331 346 344 342 344 346 348 348 348 348 348 348 349 348 348 351 351
303 303 303 304 304 304 304 304 305 306 305 306 307 307 306 309 319 323 319 317 317 315 317 321 322 330 333 329 335 328 326 332 332 331 331 330 327 324 325 326 327 326 327 329 327 328 330 333 333 331 331 331 332 331 333 335 334 337 329 325 334 327 328 341 338 339 341 339 343 339 327 334 345 343 343 343 343 348 349 349 348 348 348 348 348 349 350 351
303 303 303 304 304 304 304 305 305 305 305 306 307 307 307 314 321 323 321 318 317 315 318 327 330 331 334 333 333 329 326 328 329 330 330 331 327 325 326 326 327 327 327 328 327 328 330 334 333 330 330 330 330 330 332 328 327 336 331 318 326 328 327 337 337 340 341 339 342 338 333 337 343 343 344 343 343 345 347 348 350 350 348 350 349 350 351 352
303 303 303 304 304 304 304 305 305 305 306 306 308 308 308 318 324 323 323 319 317 317 319 329 335 333 336 335 331 330 326 326 327 329 329 329 327 325 326 326 327 327 327 328 330 331 331 332 332 330 330 330 331 330 324 317 315 325 329 322 325 329 327 329 335 340 339 341 342 340 339 341 342 342 343 343 343 343 344 346 350 351 349 352 351 351 352 354
303 303 303 304 304 304 305 305 305 305 306 306 308 308 310 322 327 324 328 325 323 326 325 329 333 330 334 332 331 332 327 326 328 329 329 328 328 327 326 327 326 326 326 327 328 332 331 331 332 329 330 328 330 330 318 315 318 320 322 320 321 328 328 328 334 337 340 341 341 339 341 342 342 342 343 343 343 343 344 345 347 349 350 353 352 350 353 354
302 303 303 304 303 304 304 304 306 305 306 307 308 309 316 328 330 327 331 332 331 335 334 334 332 329 329 328 331 331 327 328 329 329 327 328 328 326 327 326 325 326 325 326 329 332 330 332 329 325 325 328 329 329 325 326 329 327 326 324 320 321 326 336 339 338 342 340 341 341 338 342 341 341 343 343 344 344 343 345 344 346 348 349 351 351 354 353
302 303 303 304 304 304 305 305 305 305 306 306 308 314 323 335 338 335 334 334 333 336 333 333 332 329 330 329 329 329 328 329 329 328 328 327 327 325 325 325 325 325 326 327 330 330 331 329 326 324 325 328 329 329 332 333 333 332 331 326 325 322 323 338 343 338 340 337 338 345 341 342 343 341 343 342 344 342 341 346 346 344 346 346 350 353 354 351
302 303 303 303 304 304 305 305 305 306 306 305 310 319 325 329 333 333 333 333 334 335 332 333 331 329 331 330 328 328 329 329 328 328 327 328 328 325 324 324 325 325 327 328 329 331 331 325 324 328 329 329 330 330 331 332 334 333 328 324 323 323 325 336 341 337 340 335 335 343 343 342 343 340 341 341 343 343 341 343 344 345 345 346 351 352 353 351
302 303 303 303 304 304 304 305 306 307 306 310 315 321 321 324 329 328 328 328 329 330 331 333 331 329 330 329 329 330 329 329 327 327 327 327 329 325 323 323 325 325 326 328 328 329 326 325 327 330 330 329 329 331 331 331 333 331 328 321 319 324 329 331 337 338 339 334 335 341 340 341 345 342 341 341 340 342 342 342 343 345 346 347 350 351 352 351
302 303 303 304 304 304 305 306 307 307 310 318 323 324 322 326 326 327 328 327 328 328 328 331 330 328 328 330 330 330 329 328 326 326 326 326 327 327 324 324 325 326 326 327 328 323 319 325 329 329 329 330 329 329 331 330 330 329 325 319 317 325 325 322 330 339 339 334 336 341 340 342 347 343 343 341 340 342 342 342 342 343 346 346 347 349 351 351
303 303 303 303 303 304 305 305 308 315 321 325 325 324 325 324 324 328 329 328 328 329 327 329 331 329 328 330 331 329 328 328 326 327 326 326 326 327 325 325 324 326 326 327 328 326 323 328 331 329 329 330 328 329 330 327 324 326 328 321 319 326 326 324 332 338 336 333 337 337 329 333 345 346 344 343 339 341 342 343 343 343 344 344 345 347 349 350
303 303 303 303 303 304 304 308 316 320 322 323 321 324 326 324 327 329 329 330 329 329 327 329 330 328 330 329 330 329 327 327 328 327 327 326 325 327 326 326 326 325 326 327 328 328 329 331 329 330 329 329 328 328 329 326 320 320 327 328 326 329 330 332 336 332 323 323 331 333 320 323 340 343 345 347 343 340 343 342 344 346 347 345 345 347 348 348
303 303 303 303 303 303 305 314 320 314 315 320 321 323 326 328 329 328 330 330 325 326 328 328 328 328 328 328 330 328 325 327 328 328 329 326 326 328 327 327 327 326 327 327 328 328 330 331 331 330 330 329 328 327 329 329 319 314 324 330 330 331 330 330 332 325 316 317 330 333 321 320 333 342 349 356 353 345 343 342 341 348 349 345 346 346 347 348
303 303 303 303 303 304 309 316 314 312 316 319 318 321 323 325 325 327 331 324 320 326 328 327 328 326 327 328 329 327 322 323 328 329 329 327 326 328 326 326 327 325 328 327 320 323 330 332 330 330 330 328 327 324 329 331 320 316 327 332 329 331 330 327 327 322 319 322 328 331 325 319 324 340 352 356 354 352 347 343 342 345 347 346 345 345 347 348
303 303 303 304 303 305 309 313 314 317 317 316 317 320 321 322 324 327 329 320 322 326 330 326 327 326 327 329 329 327 325 325 327 327 329 328 327 327 326 327 328 326 330 325 315 321 332 332 330 330 328 327 326 326 329 330 323 324 332 332 329 330 330 328 325 320 322 322 315 322 326 317 318 335 353 354 351 350 348 346 344 345 346 346 345 344 344 347
303 303 303 304 303 306 314 314 317 319 314 317 320 320 321 323 324 326 328 325 329 325 329 326 326 327 326 329 330 328 326 327 326 326 330 328 327 328 327 327 329 327 328 326 322 327 331 330 331 329 327 327 328 329 330 329 327 329 332 332 331 331 331 329 325 319 319 318 311 315 321 316 315 328 345 346 342 344 346 345 346 347 345 347 346 345 345 348
303 303 304 305 306 310 316 316 317 316 315 321 323 323 324 323 323 324 322 328 328 325 328 325 326 326 327 329 329 328 327 326 328 328 328 327 327 329 327 329 330 327 329 328 327 330 330 330 331 330 329 329 330 330 330 330 328 329 331 331 329 330 330 327 324 319 315 313 313 315 318 319 316 322 334 339 338 341 346 346 346 346 346 347 348 345 344 348
303 303 304 306 307 311 314 314 315 315 316 321 322 321 324 323 324 321 323 329 323 325 328 325 326 327 327 329 328 327 327 326 327 327 327 326 327 328 327 327 327 325 326 325 326 330 330 329 329 329 330 329 330 329 329 330 329 330 330 328 322 320 322 319 317 317 313 312 315 317 320 319 314 318 331 340 343 345 345 344 346 345 346 347 348 345 345 348
304 304 305 306 307 308 310 312 311 312 311 315 317 318 321 322 320 318 326 326 317 322 327 326 328 327 327 328 328 326 326 325 327 327 327 326 324 328 327 326 324 319 313 315 320 323 326 329 328 329 330 329 329 326 326 329 329 330 327 321 314 313 314 314 313 314 313 313 317 320 320 317 314 323 333 341 344 344 341 342 342 346 346 346 347 347 347 349
304 304 305 305 306 308 310 309 309 308 310 315 317 318 321 318 317 318 324 323 317 323 328 327 327 328 327 326 326 327 325 326 328 326 327 326 324 326 326 327 329 320 314 315 315 313 318 326 330 329 328 329 329 323 319 322 327 327 322 315 312 312 313 314 314 314 314 314 317 321 320 315 315 326 338 337 338 340 339 338 340 344 347 347 348 347 346 346
305 305 305 306 310 311 310 308 310 313 317 320 316 317 319 316 318 321 323 325 325 326 327 328 328 327 327 326 326 326 324 325 327 327 326 325 323 323 325 328 329 326 323 317 314 312 311 317 325 327 326 328 330 327 325 326 327 328 328 324 315 313 314 314 314 314 314 313 315 319 318 312 313 325 338 337 335 339 339 338 342 345 347 348 348 347 345 345
306 305 309 314 316 316 313 311 314 319 322 320 315 317 317 315 318 320 324 328 327 329 328 327 328 326 324 327 327 326 325 323 327 327 327 325 322 322 325 325 326 328 324 315 314 316 310 313 326 330 328 329 329 329 332 331 324 326 330 324 315 318 319 315 314 314 313 313 314 315 316 319 324 334 338 335 336 339 337 338 339 342 345 346 348 350 350 347
309 310 314 319 319 320 320 319 319 322 323 319 315 315 317 318 321 322 327 329 328 330 329 325 326 321 317 322 326 327 326 325 326 325 324 326 323 323 326 326 325 328 326 319 318 318 311 314 329 331 328 332 330 330 334 328 321 324 324 317 321 329 326 315 312 315 313 312 314 314 314 320 326 333 337 335 335 336 337 334 334 340 343 347 353 356 353 350
313 316 317 320 319 318 323 324 323 323 322 318 316 317 320 323 325 324 329 329 328 330 327 320 321 319 314 315 321 326 326 323 325 323 320 322 323 324 327 326 326 327 327 326 323 323 317 315 327 331 326 329 330 330 332 331 328 324 317 319 327 330 327 320 313 313 312 312 314 312 313 316 316 321 334 338 335 335 336 333 334 341 343 342 348 355 355 353
313 317 320 322 318 315 323 326 324 323 322 317 318 321 324 323 325 324 327 328 327 330 328 319 321 322 317 314 317 325 325 320 321 322 319 321 320 323 327 326 325 326 328 329 326 327 323 313 321 332 328 329 333 328 325 328 331 328 323 328 328 316 315 318 313 312 313 313 314 312 312 314 312 317 330 335 336 338 338 338 336 337 341 342 341 348 355 357
316 320 325 327 318 316 325 326 323 323 319 315 318 322 324 323 324 325 325 328 329 328 327 324 325 323 322 319 320 325 325 320 321 322 319 319 320 324 327 326 326 326 328 330 329 330 329 316 314 328 332 329 329 325 318 319 328 330 328 331 328 319 316 315 313 313 312 313 314 313 313 315 318 327 333 335 340 341 340 343 341 336 339 345 343 343 353 359
320 322 324 325 320 320 326 325 323 323 319 316 318 321 323 323 324 324 325 327 329 328 329 330 328 325 324 325 324 326 327 324 324 322 320 321 321 322 326 327 327 328 327 330 330 329 331 321 312 322 331 325 322 324 320 321 324 324 320 319 322 322 322 319 317 315 313 313 313 314 314 315 328 342 341 339 341 340 339 344 345 339 336 341 345 344 352 359
318 319 321 324 324 323 326 325 323 323 319 318 319 321 323 323 323 324 325 327 329 329 330 331 331 328 328 327 325 326 328 326 326 324 322 324 321 321 326 328 328 329 327 328 331 328 328 323 314 315 319 317 320 329 329 328 327 326 321 319 319 321 318 315 315 315 314 313 313 314 314 316 331 347 344 339 338 334 336 339 340 339 334 338 343 344 351 359
318 319 320 325 327 326 326 323 322 323 320 319 321 321 323 324 323 323 324 326 329 328 329 330 330 331 330 330 328 327 327 326 325 323 322 324 326 325 327 328 329 330 329 328 330 330 331 327 318 313 318 322 327 332 329 327 331 330 327 327 327 324 317 311 311 314 314 314 315 314 312 318 335 345 341 340 341 335 335 336 337 338 339 338 339 340 352 362
320 321 322 326 327 327 325 322 322 323 320 320 321 321 323 324 323 323 325 327 328 329 329 329 328 330 331 331 332 331 327 324 325 325 324 326 328 328 329 330 329 328 330 328 329 332 331 326 318 314 322 328 330 332 331 330 330 327 326 329 328 324 322 320 319 320 316 313 314 313 311 320 338 350 345 343 342 336 335 337 336 339 341 339 338 342 356 365
317 319 320 324 326 325 323 322 321 321 321 321 322 322 323 323 322 324 325 326 328 328 328 328 329 328 329 331 332 333 329 323 322 326 326 326 327 329 330 329 329 331 330 328 330 329 325 323 319 313 315 319 321 323 324 325 326 325 326 330 329 327 329 325 325 327 318 313 315 314 313 322 340 352 347 339 338 335 336 337 335 340 342 339 345 352 360 369
317 321 318 318 324 325 323 322 322 322 323 322 322 322 323 323 322 323 325 327 328 327 327 328 328 326 329 330 330 332 332 325 323 326 327 327 327 328 329 329 331 328 328 337 340 329 324 327 324 314 310 312 313 314 316 319 323 325 326 328 328 329 328 323 321 319 314 315 317 314 316 327 342 347 342 338 337 336 338 339 335 341 343 341 348 357 365 374
318 324 322 320 322 323 323 323 321 323 324 324 324 324 323 322 322 323 326 327 327 327 328 328 327 327 328 329 329 330 332 329 327 329 329 328 327 328 329 331 328 329 340 354 347 333 328 331 330 323 317 314 316 321 327 326 320 318 321 324 327 329 331 327 320 315 316 319 317 319 325 328 334 339 340 340 339 337 340 340 337 344 347 346 351 356 363 373
319 325 326 327 327 323 322 322 321 322 324 325 327 327 325 324 323 325 327 328 327 328 328 326 328 326 326 329 329 328 329 331 331 331 330 329 328 328 330 328 329 343 358 352 336 333 330 323 326 332 326 322 326 330 332 328 322 319 320 323 326 329 330 325 317 320 329 322 314 328 342 329 329 339 341 342 347 344 344 340 340 346 349 347 352 354 356 363
323 323 323 325 327 325 324 322 321 320 321 324 327 329 329 326 325 325 326 327 327 327 327 327 327 327 327 328 327 326 330 330 330 332 333 330 328 329 330 326 330 345 347 334 328 333 328 319 324 328 324 326 329 328 330 331 327 327 326 323 325 327 325 322 320 327 337 324 318 335 347 334 333 340 337 342 348 342 342 341 339 342 345 346 352 356 354 356
318 316 318 320 322 325 325 325 326 325 323 325 327 328 329 328 329 326 326 326 326 325 326 327 327 326 328 328 329 331 332 326 325 334 341 338 336 335 334 328 328 336 334 326 330 334 326 321 328 326 320 324 329 329 330 330 326 327 327 327 328 328 325 325 324 328 333 330 329 338 343 339 336 337 336 339 343 340 341 343 338 339 344 345 349 351 350 352
314 312 315 318 320 322 324 326 329 328 327 327 328 328 328 329 329 328 326 324 326 327 326 326 327 327 327 329 328 330 331 330 331 337 340 339 339 340 338 331 328 331 330 327 331 332 325 322 331 328 319 320 327 328 328 328 326 323 325 328 330 328 326 326 327 328 328 330 332 336 337 338 336 340 342 341 346 347 343 340 342 343 344 341 341 342 344 351
313 311 313 316 320 323 323 326 328 328 329 329 330 330 330 329 330 329 328 326 325 327 327 326 327 327 327 329 329 330 330 334 336 337 336 336 335 336 336 333 330 331 330 329 331 332 328 324 328 327 316 314 323 325 324 328 326 320 320 325 327 325 325 325 328 331 329 329 333 330 326 330 336 341 340 339 343 345 341 341 344 346 345 341 341 342 344 351
313 311 312 316 321 324 322 325 326 326 328 328 328 329 328 328 328 328 329 329 326 326 329 330 330 331 331 331 333 334 332 333 334 333 333 333 333 332 332 333 331 330 331 331 330 330 332 326 324 322 314 312 322 325 324 323 318 314 318 325 328 328 328 329 329 333 334 335 333 326 325 332 339 340 337 338 339 340 343 342 340 344 350 348 346 346 347 349
Wind_Speed
26 27 27 27 27 28 28 28 27 27 27 28 29 30 31 31 31 30 27 25 23 23 21 20 18 19 19 18 16 13 13 12 11 11 14 18 15 10 9 6 7 9 10 9 9 11 10 10 9 9 9 7 8 6 5 5 5 4 4 2 1 3 5 7 11 8 8 11 10 10 9 10 11 11 9 7 10 10 8 11 14 15 15 18 22 25 24 23
26 27 27 27 28 28 28 28 28 28 27 28 29 30 31 32 32 30 27 25 23 23 21 18 15 16 17 15 12 10 11 11 13 17 24 24 16 14 12 10 10 10 12 10 11 12 10 9 7 7 8 6 5 3 4 5 4 4 2 2 4 5 6 6 11 10 9 11 10 10 10 11 12 12 9 5 9 11 12 14 15 18 18 20 23 23 23 22
26 26 27 27 28 28 29 29 29 29 29 29 29 30 31 32 32 30 27 24 24 23 20 15 12 13 13 11 8 6 9 11 13 19 27 25 21 20 15 12 12 13 14 12 13 11 11 12 5 6 8 6 4 5 5 3 3 4 1 2 4 6 6 7 10 10 10 11 11 10 9 10 10 11 10 7 8 10 11 13 14 17 19 19 20 21 21 21
26 26 27 28 28 28 29 29 30 30 30 29 30 30 31 32 32 29 26 25 24 22 16 11 10 10 9 8 6 5 7 11 10 13 17 20 23 23 19 15 13 15 16 14 15 12 12 14 7 7 7 7 6 5 5 4 2 1 4 3 5 6 6 9 9 10 10 11 11 9 9 9 9 10 10 9 8 8 10 12 15 17 19 19 18 19 19 18
26 26 27 28 28 29 29 30 30 31 31 30 31 30 31 32 31 28 25 25 23 18 12 8 8 8 6 6 3 4 7 6 1 3 6 16 19 20 20 16 14 16 16 15 16 13 13 13 10 9 7 9 6 4 7 4 1 1 6 4 7 7 7 11 9 10 10 10 10 9 10 9 9 9 11 11 3 3 9 13 17 18 18 19 18 18 17 16
26 27 27 28 28 29 29 30 31 31 31 31 31 31 31 32 30 26 25 24 20 14 8 6 6 5 5 3 3 3 6 4 5 6 6 15 16 16 18 15 15 16 14 14 14 14 12 11 12 9 7 10 7 4 7 2 4 1 6 5 7 8 9 10 8 8 8 10 10 9 10 10 11 9 12 14 4 4 11 16 17 18 18 19 18 17 16 15
25 26 28 28 28 29 30 30 31 31 32 32 32 32 32 32 28 25 23 22 17 10 6 5 5 5 4 3 3 3 8 11 9 1 7 12 14 15 16 15 16 16 14 13 13 13 11 12 12 9 10 11 8 7 7 4 2 2 6 6 8 9 9 9 8 8 8 10 10 10 11 10 12 10 10 13 11 8 15 17 17 18 19 19 16 15 15 15
25 26 28 29 29 29 30 30 31 32 33 32 33 32 32 32 26 23 22 19 14 8 5 4 4 5 4 2 5 6 11 15 8 8 6 8 13 16 16 15 17 16 14 15 15 13 11 13 13 11 11 6 5 5 5 4 4 7 6 7 9 8 9 9 9 9 9 9 10 12 13 12 12 11 9 11 13 14 15 16 17 17 17 16 15 15 14 13
25 27 27 28 29 30 30 31 31 32 33 33 33 32 32 31 24 21 19 16 12 8 4 3 4 5 3 3 6 8 9 8 10 9 4 8 14 18 17 15 18 17 15 17 16 15 12 12 13 13 10 5 4 3 3 6 5 10 6 8 9 8 10 9 9 10 9 8 11 14 14 13 12 11 10 10 13 14 15 16 16 16 16 14 14 14 12 12
26 27 28 29 29 30 30 31 31 32 33 33 34 32 32 30 23 19 17 13 10 8 5 3 4 4 4 5 8 8 1 8 11 7 6 12 16 18 17 17 20 19 16 16 16 17 14 12 13 12 10 7 5 6 4 8 5 10 8 10 10 8 9 9 10 11 9 10 12 13 13 13 12 9 8 10 12 13 15 15 15 14 14 13 13 14 10 10
27 27 28 29 29 30 30 31 31 32 33 33 34 33 32 30 23 17 14 10 9 10 6 3 3 4 6 7 9 7 3 5 9 10 10 16 19 18 18 18 19 20 17 15 17 18 18 17 12 8 6 4 6 6 4 7 10 11 10 11 11 9 9 9 10 11 9 10 12 13 13 13 11 9 9 10 11 12 14 14 14 13 12 12 13 13 9 8
27 28 28 29 29 30 30 31 32 32 33 33 34 33 32 30 22 15 12 9 9 10 4 1 2 3 7 8 11 12 3 3 7 9 11 16 19 19 19 18 18 19 18 15 15 18 20 17 11 7 5 2 6 5 5 9 10 11 10 9 10 9 10 9 9 11 9 9 11 11 11 11 10 11 11 11 11 12 13 13 13 12 11 11 12 11 8 8
28 28 29 29 29 30 30 31 31 32 33 33 33 33 33 30 21 14 11 7 8 9 4 2 5 3 8 6 14 23 14 6 6 8 10 15 17 17 17 18 18 19 19 17 15 16 17 13 10 10 9 7 4 5 3 7 8 10 9 7 9 8 8 8 7 8 9 10 11 6 5 8 10 13 13 11 11 13 12 12 12 12 11 10 11 9 9 10
28 29 30 30 30 30 30 31 31 33 33 33 33 33 34 29 19 13 10 6 6 8 4 4 4 4 7 8 15 18 15 7 5 9 12 15 16 17 18 18 18 19 20 19 15 13 13 10 11 11 11 12 5 6 3 6 8 7 8 6 6 5 6 9 7 8 8 8 8 5 2 7 11 13 14 12 11 12 11 12 11 11 11 10 10 9 9 10
29 31 31 31 31 30 30 31 32 33 33 33 32 34 35 27 16 12 9 6 5 6 7 4 5 6 5 12 14 9 13 9 8 13 14 17 18 17 18 19 19 20 19 18 17 13 11 11 11 9 9 14 7 6 7 6 6 7 6 5 5 2 5 10 9 8 7 6 5 3 3 8 11 13 15 13 12 12 10 10 11 11 12 10 10 10 9 10
30 31 32 32 32 31 31 31 32 33 34 34 32 34 33 23 14 11 10 6 4 5 6 6 9 11 6 6 3 9 13 12 12 14 15 19 19 17 19 19 17 18 18 18 17 11 11 11 10 9 10 10 6 8 9 6 5 7 6 6 7 5 6 8 10 8 9 9 6 3 3 8 11 12 15 15 14 14 12 11 12 12 12 11 9 8 8 9
30 31 32 32 33 32 31 31 32 32 34 34 32 34 29 20 14 11 9 5 3 4 8 10 9 10 9 6 3 7 12 13 14 15 16 19 19 18 19 16 14 15 18 17 13 8 11 11 8 9 10 7 6 8 9 8 7 7 6 7 8 9 7 7 10 10 9 8 8 6 4 8 12 13 14 15 15 14 13 13 12 11 11 10 9 9 9 9
31 32 32 33 33 33 32 31 32 32 34 34 31 32 28 19 12 8 6 2 2 4 10 13 12 6 7 11 13 10 12 15 16 16 16 18 19 19 19 15 13 15 16 13 10 9 10 10 9 8 9 8 8 9 8 8 9 9 9 8 7 10 9 7 7 9 10 6 8 7 5 9 14 13 13 14 15 14 13 13 13 12 11 11 10 10 10 10
32 33 33 34 34 34 33 31 32 32 34 34 31 30 23 12 6 6 8 6 5 4 6 7 10 6 6 9 14 12 12 15 16 16 17 18 19 19 19 16 14 15 13 9 10 12 10 8 9 10 9 10 11 11 11 10 12 14 14 10 8 9 9 8 7 9 12 9 9 7 5 10 13 13 13 13 14 13 12 13 13 12 12 11 11 10 11 11
33 33 34 34 34 35 34 32 32 32 34 35 30 22 13 6 2 3 7 9 10 11 14 8 13 14 12 6 12 13 13 14 13 15 18 18 19 19 17 15 14 13 12 10 11 12 11 9 10 10 10 12 14 16 16 13 13 15 14 9 10 10 9 13 12 11 11 8 9 11 8 10 12 13 13 12 12 12 12 13 12 13 12 12 12 12 12 11
34 34 34 34 35 35 34 33 32 31 34 33 21 9 8 9 8 4 2 8 13 17 20 18 14 17 14 7 10 15 13 12 13 14 18 19 18 16 14 14 14 11 12 14 12 11 11 10 12 13 14 14 16 17 18 16 14 13 9 7 11 11 9 15 14 10 11 8 6 11 11 11 11 12 13 12 11 11 13 13 13 14 13 11 12 14 13 10
34 33 34 35 34 35 35 34 31 32 33 21 8 8 11 14 14 11 9 9 12 16 19 20 20 17 13 12 9 16 10 10 14 14 18 19 15 13 14 15 14 11 14 15 11 11 11 11 14 16 15 15 15 17 18 18 16 11 7 7 9 9 9 13 13 11 10 6 5 8 8 8 10 11 12 13 11 10 12 13 12 13 13 11 12 13 14 12
34 34 35 34 35 37 35 34 32 31 24 9 8 12 13 16 17 15 11 9 12 15 15 16 19 16 14 13 9 15 12 12 14 15 19 19 14 13 14 15 15 14 15 15 13 11 10 12 16 16 15 16 15 15 16 15 11 9 9 7 7 9 10 9 11 12 11 7 5 7 6 7 10 10 10 12 11 10 12 13 12 12 12 12 13 13 14 14
34 34 35 34 37 36 34 36 30 20 12 8 14 19 18 16 16 15 11 9 10 13 16 16 16 14 14 13 11 14 13 11 13 16 20 19 14 13 14 15 15 14 14 17 18 14 12 13 17 16 15 16 15 14 14 12 7 7 12 9 7 10 11 11 13 12 12 9 7 7 6 5 7 7 8 10 11 11 11 12 12 11 12 12 13 14 14 14
35 35 35 36 36 36 37 32 18 13 14 14 20 21 16 12 10 12 10 7 9 10 15 16 13 13 16 15 13 13 12 12 14 15 19 19 17 12 12 12 12 13 16 20 19 14 14 15 15 16 16 16 16 14 15 12 7 8 13 15 13 9 11 15 18 13 9 8 9 9 6 4 5 3 5 5 8 11 11 12 12 11 11 12 12 13 14 14
35 35 35 35 34 38 33 15 11 22 21 16 17 14 10 8 9 12 9 6 8 8 12 12 10 13 17 15 13 12 12 13 14 16 20 20 19 13 10 9 8 13 16 17 13 9 12 17 16 16 16 18 16 12 13 13 9 7 11 17 18 11 15 18 20 15 7 6 10 12 9 5 6 5 6 2 5 10 10 13 13 11 11 11 11 12 13 14
36 34 36 35 33 35 23 10 19 26 15 12 16 18 14 12 12 11 7 6 7 7 11 11 9 14 17 14 14 12 10 10 13 17 20 20 20 14 13 11 9 12 13 11 9 8 13 18 18 16 18 17 14 10 9 12 10 9 11 17 14 13 15 14 13 14 7 6 10 14 12 7 5 10 12 7 5 10 11 12 12 11 12 13 12 12 13 14
36 35 36 34 32 29 17 16 20 17 14 17 20 19 17 15 13 8 6 5 3 4 8 9 7 11 14 14 17 13 10 12 13 15 19 23 22 14 14 14 12 14 14 11 10 9 14 16 16 18 18 12 10 11 12 13 13 11 7 10 11 12 16 13 6 10 9 7 8 11 13 8 4 10 13 14 12 13 15 16 14 12 13 14 14 14 14 14
36 36 35 36 34 23 11 13 15 15 18 19 18 19 18 15 11 6 5 6 2 3 5 6 6 9 11 13 17 15 13 12 12 13 19 22 22 16 12 14 15 16 17 16 12 10 12 14 14 17 16 11 9 13 16 14 13 11 7 8 11 14 11 10 6 6 7 7 7 8 11 8 5 8 12 14 15 16 16 15 14 13 13 13 14 14 14 12
37 36 35 37 32 18 9 14 21 19 17 16 17 19 17 12 7 6 7 5 4 4 6 5 6 12 14 14 15 16 17 14 11 14 16 17 20 18 12 12 14 14 15 16 14 12 13 13 13 12 12 10 10 13 15 14 14 13 9 11 12 9 5 6 6 6 8 6 8 11 12 10 6 6 11 12 14 14 13 12 13 15 16 15 14 15 15 12
38 37 35 35 29 19 12 14 20 15 13 14 16 16 13 7 5 8 7 4 5 6 10 8 10 15 17 16 13 15 18 15 13 16 15 14 17 16 12 10 10 10 11 12 12 14 16 15 10 8 9 11 11 13 14 16 17 12 7 9 8 3 4 5 6 6 7 7 9 13 12 12 8 6 9 12 17 19 15 14 15 16 16 15 15 15 14 13
39 37 35 34 31 24 17 19 19 18 18 17 14 11 8 6 7 8 7 5 3 7 9 10 13 15 17 18 14 15 17 14 14 17 15 14 14 14 13 10 9 9 10 9 10 13 15 14 13 10 12 14 13 12 12 15 15 10 7 8 7 4 4 6 7 7 7 7 9 12 12 11 9 8 9 11 15 20 16 13 15 18 18 15 16 17 13 13
40 38 35 31 28 25 26 25 24 22 20 16 10 7 6 7 8 9 11 9 4 8 9 11 15 16 18 17 13 16 17 14 15 16 17 16 14 15 17 15 12 11 9 9 11 11 9 8 13 13 12 14 15 11 10 10 8 8 8 6 6 6 6 7 7 6 7 9 11 13 12 8 7 7 9 11 13 16 14 12 13 17 20 16 16 18 15 14
41 37 33 28 24 25 27 26 22 17 14 10 7 6 8 9 9 11 14 12 7 9 10 11 15 17 17 16 14 15 15 14 16 16 15 16 13 13 16 17 17 13 10 10 10 10 10 6 10 13 10 13 17 14 10 10 7 7 8 8 8 8 6 6 6 6 7 8 11 13 10 7 5 2 4 5 6 14 13 11 9 8 13 13 13 17 17 16
39 32 27 23 23 24 24 23 20 13 9 8 6 7 10 9 9 12 12 12 12 11 7 8 13 15 15 14 15 18 15 12 17 18 14 15 13 13 14 15 19 17 12 10 8 10 12 9 12 15 12 15 16 15 11 13 10 9 9 10 10 8 7 6 7 9 7 6 7 7 6 5 2 0 1 1 4 9 8 7 8 6 9 11 9 11 12 13
35 29 22 19 21 20 19 18 17 15 10 7 7 9 10 8 10 11 9 11 13 8 6 7 11 12 12 12 14 19 18 14 16 16 12 15 15 15 15 14 18 20 15 10 7 9 11 9 15 19 16 17 17 15 12 10 8 8 9 11 11 9 9 7 8 10 8 7 6 5 6 6 4 3 7 8 6 6 4 2 6 7 8 9 8 8 8 11
28 23 18 19 21 19 17 16 17 16 10 7 9 10 9 11 15 14 12 13 11 8 10 9 10 11 11 11 12 17 19 15 14 13 11 14 14 16 18 15 18 22 20 14 8 9 10 8 16 22 18 17 18 17 16 11 10 8 9 11 11 10 8 5 6 7 7 8 6 7 10 8 6 4 7 12 10 8 7 3 5 7 8 6 8 10 12 13
23 17 16 22 24 19 17 19 18 14 8 7 11 12 11 13 16 18 17 16 14 10 10 9 8 11 13 11 11 17 18 13 13 13 11 11 12 17 19 15 17 22 24 21 11 9 11 8 12 23 19 16 17 16 15 13 15 13 9 10 9 7 8 7 6 5 6 7 6 7 10 8 6 4 8 13 11 10 11 6 6 8 10 7 7 8 13 13
18 10 11 15 18 18 19 21 16 10 7 8 11 11 12 14 17 20 19 17 16 11 10 11 9 11 13 12 12 16 18 15 13 11 11 10 10 17 20 14 16 22 25 23 13 7 9 8 6 18 20 15 14 12 11 11 13 14 11 8 6 6 8 7 5 3 6 6 5 7 7 4 3 5 12 13 10 9 11 10 8 6 8 9 8 6 8 12
12 6 7 5 11 20 22 18 12 8 8 10 11 11 12 15 17 21 22 19 15 10 9 12 10 9 12 15 15 14 15 16 15 11 10 11 11 16 20 17 16 21 24 23 16 9 8 8 5 13 17 15 10 10 12 11 11 11 10 9 7 6 6 5 5 6 7 7 5 6 4 2 3 4 12 12 8 6 6 7 6 3 3 6 9 6 5 9
8 6 7 4 16 23 19 11 8 8 8 10 12 14 14 14 15 18 22 21 15 10 10 14 12 8 9 12 14 13 13 14 16 13 10 13 13 11 16 18 16 18 20 19 15 11 8 7 6 9 11 11 11 13 15 16 14 12 9 9 9 7 6 6 5 7 7 6 5 6 3 5 5 5 9 9 7 8 6 3 6 6 4 3 6 7 5 6
6 5 5 9 18 19 13 7 7 8 8 10 12 15 15 13 15 17 18 18 14 11 11 13 13 11 10 11 12 14 13 13 14 14 10 13 16 11 15 21 19 17 16 13 14 14 10 6 8 9 9 12 15 16 17 17 18 14 11 10 9 8 6 6 6 6 5 6 6 7 3 5 6 5 8 7 6 9 8 3 2 6 6 3 2 5 6 6
5 8 8 8 17 16 9 7 9 9 9 12 14 17 17 15 15 15 16 16 14 11 11 11 12 12 12 13 13 14 15 13 15 16 13 14 17 15 17 22 22 19 15 12 14 14 9 6 7 8 7 11 14 14 15 16 15 14 11 12 11 10 9 9 7 4 5 8 8 6 3 4 4 4 6 7 5 7 8 4 1 3 6 4 2 2 4 7
6 9 11 10 16 15 10 8 9 10 10 14 16 18 19 16 15 16 16 14 11 10 12 12 13 13 12 14 14 15 15 11 15 19 16 13 14 17 20 23 22 19 14 11 11 10 8 6 5 6 7 9 10 9 11 15 12 10 11 13 16 16 15 12 8 4 5 7 7 6 4 4 4 4 5 5 3 2 5 6 4 2 4 3 3 2 3 6
7 6 7 11 14 13 10 9 10 10 12 16 18 18 18 16 16 18 16 13 12 12 12 12 14 15 13 14 15 15 16 13 10 15 16 14 12 15 21 21 18 19 16 12 12 9 8 7 5 7 8 10 10 8 9 11 11 10 13 17 18 20 19 12 6 5 6 4 5 5 2 6 6 4 4 3 3 2 2 3 4 3 4 2 1 3 4 5
6 4 5 7 10 10 9 10 12 12 11 13 14 16 18 17 16 15 12 11 12 14 15 13 15 16 14 15 16 14 14 15 11 8 12 15 12 12 18 19 20 20 13 9 11 9 8 9 8 7 8 10 9 7 10 12 11 13 15 18 17 16 17 12 7 7 6 5 5 6 6 9 9 8 4 3 5 3 3 3 1 2 5 4 2 2 3 5
3 5 5 3 4 9 10 10 12 12 13 13 9 10 17 19 16 13 10 10 13 15 16 15 16 16 14 16 16 13 12 14 14 13 13 14 13 13 17 20 22 15 5 4 12 10 7 9 13 14 13 15 16 12 11 12 12 13 15 17 18 17 17 14 11 8 7 6 6 8 12 12 11 11 9 7 8 7 5 4 3 3 3 4 5 5 5 6
3 6 8 8 6 7 7 8 12 14 17 16 10 10 15 18 17 12 10 12 15 16 14 13 16 17 16 15 14 11 11 13 14 13 10 11 13 12 15 19 17 13 10 10 14 10 7 10 15 18 17 17 20 20 17 14 13 15 16 17 19 19 20 18 15 12 8 6 5 6 11 11 10 11 11 9 6 3 1 2 3 3 3 4 5 7 8 8
5 6 8 11 10 10 11 12 12 13 16 16 12 12 14 15 16 14 11 12 14 15 15 14 15 17 18 16 11 8 10 10 12 10 9 9 9 6 8 15 13 13 11 14 12 8 7 9 13 16 15 15 20 22 23 21 16 16 18 19 19 20 21 20 19 19 15 11 11 10 10 9 7 7 7 4 2 2 0 1 4 4 4 5 5 6 9 10
6 5 7 11 11 11 12 14 11 10 11 12 11 12 14 15 15 13 13 13 12 13 15 16 17 16 18 18 14 13 12 7 9 10 10 12 10 9 6 9 10 13 14 12 9 9 8 7 10 11 12 16 21 21 21 21 18 17 18 20 21 21 21 20 18 18 17 14 11 8 5 5 5 5 5 4 3 2 3 2 4 4 5 6 8 9 7 9
9 9 9 9 9 10 10 11 10 8 8 8 9 9 12 14 13 9 10 11 12 12 12 14 17 14 15 18 15 13 12 5 7 9 10 12 10 7 6 7 8 10 12 11 10 10 10 8 9 9 10 13 15 17 19 20 21 21 20 23 24 19 16 16 14 14 15 9 4 3 5 5 4 5 6 5 3 5 5 5 5 3 4 6 8 8 6 5
13 12 10 8 8 9 9 9 9 7 7 8 9 10 12 14 14 12 8 6 10 13 11 9 9 7 10 12 5 4 7 7 9 10 10 11 11 8 7 7 9 11 10 10 10 8 8 8 8 9 10 10 14 19 20 18 17 16 15 19 19 15 14 14 13 14 12 5 3 4 5 3 1 2 4 4 2 3 3 3 2 1 3 4 5 4 5 6
Wind_Direction
356 356 356 355 354 353 353 352 351 349 347 345 343 341 339 338 336 334 331 327 324 319 313 303 297 301 306 311 314 311 308 307 290 263 244 252 254 247 244 235 247 227 218 237 243 249 246 241 242 238 243 229 231 237 196 223 260 262 265 272 37 62 64 103 127 142 133 127 131 122 117 114 114 111 102 118 119 112 116 106 106 108 108 114 120 127 130 131
356 355 355 354 352 352 352 352 351 349 347 345 343 341 339 337 335 333 330 327 323 318 313 305 299 304 307 312 315 318 320 301 273 260 250 251 252 249 244 234 238 217 211 227 234 237 241 237 217 221 241 227 212 193 196 220 223 251 281 61 49 54 55 84 125 136 128 125 126 122 120 116 122 114 89 91 112 112 108 99 104 107 110 117 124 131 133 137
356 355 354 353 352 351 351 351 350 348 347 345 343 341 339 337 335 332 329 327 323 318 314 307 305 307 310 316 317 332 331 300 268 257 253 246 237 239 235 228 228 210 208 223 233 233 249 257 235 214 236 244 213 174 194 205 225 261 264 111 77 74 73 75 98 109 117 125 122 122 123 124 132 122 113 130 122 117 120 116 119 121 125 130 131 135 140 143
355 354 353 353 351 350 350 349 349 348 346 344 342 341 339 337 334 331 328 326 324 320 316 314 312 308 315 324 329 355 318 285 265 257 249 233 228 230 225 224 217 205 211 230 248 245 251 269 273 228 229 244 223 186 183 158 217 312 52 73 83 85 103 99 102 109 115 111 109 122 124 120 118 117 126 138 133 130 134 132 134 134 134 136 137 142 146 146
355 354 353 352 351 351 349 348 348 347 346 344 342 341 339 337 334 330 328 327 325 322 321 322 316 309 316 323 354 0 301 270 356 352 217 205 214 218 215 217 207 201 212 234 256 255 246 262 264 238 240 245 216 189 206 173 294 88 78 84 96 94 106 104 102 102 107 108 115 121 105 95 88 88 93 89 81 150 137 135 133 136 137 139 143 145 148 148
354 353 352 352 351 350 348 347 346 346 345 343 342 340 339 338 333 329 328 328 325 321 326 323 317 315 309 336 24 319 268 254 18 31 154 182 195 204 202 204 199 198 214 237 251 251 240 246 250 235 226 236 233 221 202 144 327 148 96 84 96 99 99 98 104 107 114 115 114 106 96 99 98 96 97 104 189 207 125 129 132 135 138 140 144 148 150 150
353 352 351 351 351 349 348 346 345 345 344 342 342 340 339 338 332 329 330 329 325 320 330 321 313 304 294 358 345 265 236 266 295 82 144 170 186 196 192 191 194 198 217 232 237 240 233 229 240 236 227 231 225 199 161 145 285 108 108 115 104 103 109 110 110 103 96 95 100 105 103 103 100 102 106 122 161 148 115 124 132 134 138 140 146 150 150 152
353 352 351 350 349 348 347 346 345 343 342 341 341 340 339 338 332 329 331 331 325 318 330 320 297 285 277 313 286 249 240 255 234 156 153 180 187 187 184 187 194 200 214 224 229 234 227 225 231 231 240 247 217 183 122 163 141 99 109 118 110 114 118 109 99 98 104 108 110 105 97 92 94 99 96 103 120 117 117 128 132 135 139 141 147 147 147 156
352 351 350 349 348 347 346 345 344 342 341 340 339 339 338 338 331 328 334 332 324 317 328 310 283 267 259 282 268 266 256 217 164 157 164 176 186 182 179 185 191 197 210 220 229 236 229 223 224 225 253 280 213 144 112 222 135 106 125 119 121 128 120 114 111 106 106 108 103 99 99 102 106 107 102 102 111 118 126 131 133 139 142 144 148 142 147 163
351 350 349 349 347 346 345 344 343 342 340 338 337 337 337 338 331 327 335 332 326 319 322 304 271 241 239 254 250 256 222 131 144 169 166 163 176 179 183 185 186 194 209 217 223 235 232 219 219 221 256 274 190 141 180 223 116 111 151 136 130 130 123 119 112 106 104 110 111 114 116 118 120 114 110 114 120 129 134 134 140 145 143 148 146 138 157 171
350 349 348 348 346 345 344 342 342 341 339 337 336 335 336 337 329 325 332 330 324 315 321 315 252 210 243 254 246 238 146 153 164 157 160 164 170 180 190 189 187 196 208 216 220 232 233 229 237 223 237 260 180 168 167 166 129 137 158 132 133 146 133 119 116 122 125 123 124 129 125 120 117 110 117 128 134 141 141 141 147 148 145 148 140 139 170 173
348 348 347 346 345 344 342 341 340 339 339 336 334 333 333 334 327 319 323 324 318 312 330 24 151 175 268 265 242 239 247 244 191 163 168 171 178 187 191 191 194 201 207 216 221 231 239 246 271 252 225 238 182 162 122 150 144 144 150 137 152 161 141 137 142 134 128 124 128 134 125 115 112 115 126 136 142 145 145 149 151 149 146 144 138 148 175 167
346 346 345 344 344 343 341 340 339 337 337 335 332 332 330 331 325 311 314 319 314 309 308 116 127 212 272 270 243 240 247 269 203 183 178 175 188 193 195 199 197 203 212 220 220 226 242 262 289 253 239 259 193 92 93 169 137 138 158 159 162 166 161 153 142 137 137 130 128 135 128 115 119 129 136 144 149 148 149 153 154 150 148 146 143 160 174 162
345 344 343 343 342 341 340 338 337 335 335 333 330 329 328 327 322 306 303 301 307 301 265 161 148 246 253 260 264 234 219 249 212 193 190 181 189 191 198 206 199 204 215 227 228 226 237 254 276 256 243 255 209 108 209 170 127 160 169 160 170 181 174 150 148 168 158 144 143 161 179 122 128 141 141 142 147 152 155 153 157 153 149 151 151 169 171 160
343 343 341 341 340 340 339 336 336 334 332 332 329 328 326 323 318 301 291 283 292 277 258 242 220 237 256 262 266 201 184 235 226 203 196 184 187 188 195 204 204 208 215 230 238 230 222 231 258 255 239 252 228 165 198 159 145 183 161 171 185 177 183 159 167 181 149 141 157 187 188 128 136 149 146 147 149 152 156 155 164 157 153 158 158 172 167 160
342 341 340 339 338 338 337 335 334 332 331 329 327 326 323 320 316 295 281 273 264 250 251 261 219 216 265 287 219 170 191 222 218 201 191 188 191 187 190 200 206 211 214 228 242 230 206 219 245 246 241 251 234 192 185 160 179 179 162 197 170 158 215 174 164 179 159 152 159 201 195 135 141 153 153 157 153 152 157 161 170 161 156 161 159 172 167 161
341 340 338 337 335 335 336 335 333 331 329 327 326 325 320 315 311 287 274 267 248 250 247 267 258 221 254 284 210 198 202 206 205 193 187 191 194 187 185 197 204 208 212 220 241 231 195 213 236 234 239 236 220 215 194 170 184 171 175 215 172 167 217 189 164 180 180 166 157 178 187 136 143 157 162 163 157 158 163 162 168 165 159 162 163 172 171 165
340 338 337 335 334 333 334 333 332 331 327 324 326 323 315 311 304 271 259 234 159 250 251 265 274 254 252 246 237 226 197 195 193 183 185 191 196 192 185 195 200 201 210 213 226 221 196 207 223 225 226 213 211 224 211 182 181 176 186 215 186 176 205 203 180 177 181 180 154 169 192 145 146 159 167 172 168 164 163 161 167 168 164 167 173 172 168 168
339 338 336 334 332 331 331 332 331 330 326 322 325 323 314 307 291 238 231 209 178 236 252 220 203 232 288 223 215 220 189 182 179 179 186 189 195 192 185 198 202 198 209 206 202 207 200 198 212 226 222 206 205 217 220 198 182 187 199 203 184 190 191 185 214 189 175 189 165 166 206 159 153 167 169 180 181 165 160 165 166 166 168 173 177 170 166 172
338 337 335 333 331 329 329 329 328 329 327 322 326 327 308 292 282 202 207 213 214 244 271 254 192 225 270 215 190 199 174 166 178 184 185 190 196 187 183 198 200 199 209 203 192 197 204 203 206 220 218 204 204 217 227 216 189 192 204 190 179 203 178 169 212 198 173 208 172 156 187 171 161 171 169 179 186 169 162 168 166 164 170 175 175 167 169 178
337 336 335 333 330 329 327 327 326 325 323 319 320 315 286 302 329 347 287 246 236 241 261 267 238 237 263 262 191 177 165 169 190 191 182 192 201 187 180 194 197 197 206 207 197 194 210 214 206 213 218 207 204 217 230 232 218 206 207 184 184 208 185 176 200 187 176 215 183 165 182 172 167 175 173 176 184 178 169 172 172 169 170 173 174 167 169 179
335 336 335 333 331 328 326 324 322 319 318 313 283 252 269 293 312 326 318 288 272 264 259 254 250 249 254 258 191 155 167 185 189 195 182 186 202 190 177 191 200 194 199 209 198 191 210 219 212 212 219 213 204 216 229 236 241 241 228 200 195 206 188 179 181 171 182 205 193 193 184 165 175 180 177 177 183 185 175 175 176 171 170 174 174 166 169 180
335 336 334 334 331 327 325 323 319 316 311 288 237 252 270 289 302 313 305 284 283 278 266 242 237 238 232 236 176 156 195 198 186 193 181 185 203 195 183 191 203 196 197 208 203 195 203 217 219 211 219 225 211 213 230 238 245 267 258 211 195 213 199 169 157 167 192 204 197 201 194 187 183 181 185 183 185 187 179 179 179 175 172 175 178 172 174 177
335 336 334 334 331 328 327 322 317 313 303 272 262 263 267 281 297 311 305 282 277 270 265 250 231 227 223 217 181 179 209 202 193 190 177 188 205 198 194 195 203 203 199 206 209 208 203 211 223 212 211 230 225 207 221 238 223 235 256 240 211 217 198 161 156 176 200 203 202 198 203 208 168 169 200 187 188 196 185 181 182 180 176 179 183 176 176 175
334 335 334 334 333 330 326 321 319 330 324 291 269 268 273 279 296 318 313 282 272 253 244 242 230 219 213 208 190 191 210 203 203 190 173 192 207 198 200 197 204 211 201 205 211 216 211 205 219 222 209 218 232 213 204 225 224 209 235 247 246 218 172 162 162 176 203 196 199 203 210 210 140 157 237 207 206 207 190 187 187 182 178 181 187 180 178 177
333 334 334 334 334 333 330 324 327 331 321 284 277 301 318 315 328 325 305 271 272 247 212 205 200 193 196 202 188 190 213 202 201 192 172 193 212 204 204 196 206 219 204 203 212 221 219 201 201 228 223 210 228 233 202 206 232 220 204 234 257 231 187 182 168 170 212 202 191 198 209 209 147 174 230 252 269 239 205 196 191 182 181 185 193 184 180 180
333 332 332 332 332 336 335 309 318 323 305 284 311 331 328 324 334 321 287 265 261 230 189 171 163 171 182 191 176 186 215 181 188 199 175 188 209 208 213 199 194 222 211 203 210 216 226 207 188 214 232 216 214 232 207 193 224 244 194 201 239 250 233 223 181 173 203 218 204 197 200 220 185 188 199 184 240 255 230 212 196 184 185 191 200 190 182 185
330 330 331 329 328 331 314 285 306 305 281 299 318 321 319 320 319 299 271 267 236 166 164 157 143 167 188 186 172 194 222 174 181 197 174 185 205 209 220 211 202 218 217 214 210 201 223 219 189 199 228 226 199 212 214 201 219 246 230 201 210 241 265 271 218 183 190 211 232 203 193 224 219 174 184 187 202 226 226 214 198 192 195 193 201 198 188 187
328 328 329 326 324 327 304 272 280 281 290 307 314 313 311 306 299 275 254 263 233 135 156 157 145 175 196 183 176 204 222 190 185 183 169 184 207 217 230 225 215 214 217 225 222 199 211 228 211 200 217 225 194 205 216 210 220 230 244 258 223 207 238 270 256 241 231 218 241 229 198 217 237 165 173 192 203 214 217 208 195 198 208 202 202 205 194 185
327 325 326 326 323 329 332 278 265 280 304 309 312 311 299 286 278 244 234 248 251 188 153 157 170 178 189 183 182 207 215 203 188 174 170 183 203 216 235 235 228 222 216 223 231 218 205 220 233 218 212 217 197 206 218 213 226 230 218 242 237 186 181 265 265 274 280 242 239 249 212 198 229 193 181 195 202 207 207 204 201 200 206 204 201 207 202 187
325 321 322 321 311 309 319 277 262 289 318 312 314 308 286 260 242 247 228 220 257 196 151 165 178 173 188 190 185 204 212 207 190 175 174 182 193 206 224 226 227 233 221 214 227 230 214 205 218 228 216 213 203 206 219 214 216 228 221 229 243 168 143 245 245 237 263 254 243 254 229 207 235 234 197 194 193 195 197 201 204 198 201 204 197 204 205 188
323 319 315 310 301 288 269 258 271 299 312 313 314 299 272 228 227 243 228 221 223 174 169 184 178 176 193 195 192 200 206 208 195 179 177 186 191 196 213 215 201 213 219 207 211 226 228 204 186 199 212 215 212 198 211 221 206 199 218 227 232 219 189 217 230 217 235 251 244 254 251 234 248 245 217 209 196 189 193 203 201 194 200 206 196 197 201 189
322 318 310 302 297 279 262 267 281 290 298 302 295 277 253 237 235 228 233 239 166 161 194 189 178 184 191 195 199 197 200 206 194 180 180 191 196 193 209 220 209 212 219 208 206 212 226 199 177 193 204 209 221 208 196 217 199 182 211 225 215 217 208 204 226 233 235 246 239 243 257 258 258 233 206 225 212 179 185 210 206 194 195 202 195 188 196 194
320 315 310 303 291 274 267 273 275 275 283 279 264 250 235 236 242 235 238 239 216 210 213 186 179 187 192 201 201 191 201 205 189 185 184 189 202 197 203 218 215 217 221 209 207 203 207 200 183 201 200 192 220 236 205 190 195 196 209 227 223 220 222 208 215 232 231 240 232 225 232 239 259 236 164 232 195 157 177 200 187 177 178 187 195 185 190 198
319 315 312 300 282 272 266 262 253 246 251 246 240 239 229 227 236 241 243 237 235 241 228 192 185 187 194 206 202 192 203 209 189 191 195 191 203 202 196 210 213 215 220 210 201 199 210 211 187 200 206 184 207 243 216 183 195 201 203 233 234 207 207 224 240 248 249 260 244 226 232 211 191 87 159 336 88 140 178 179 143 131 149 167 187 177 185 203
320 319 310 281 265 261 254 244 226 214 222 231 231 230 227 231 234 236 240 235 238 262 282 230 199 197 195 200 208 195 197 215 195 187 201 198 201 209 202 202 208 215 224 216 192 192 213 210 176 188 209 190 196 235 226 188 195 192 191 229 245 226 211 219 241 248 258 270 254 230 251 228 190 226 206 189 168 150 161 187 163 147 141 155 157 150 190 216
320 317 303 272 262 248 225 207 195 199 213 222 228 235 231 232 238 243 255 257 256 281 294 256 206 208 203 192 210 197 189 208 199 182 201 202 198 209 208 203 204 215 228 227 207 195 220 225 172 178 201 191 188 224 233 212 208 201 189 205 232 257 256 243 241 233 228 246 243 217 232 228 211 226 181 168 170 153 147 217 211 150 137 166 166 160 190 209
308 303 290 270 260 238 201 180 180 192 206 218 233 243 243 239 242 246 255 268 267 255 265 261 211 207 212 198 203 199 188 194 197 190 202 201 195 203 207 208 201 210 227 231 223 200 213 239 178 173 191 190 181 212 233 221 217 224 221 202 204 240 249 238 243 252 242 246 251 236 238 240 227 199 140 148 160 158 155 178 207 166 153 181 197 185 188 184
293 284 284 265 238 208 178 170 181 200 208 218 228 236 243 247 249 251 257 273 279 264 261 267 231 205 219 217 204 199 192 193 201 199 199 198 190 193 202 210 200 205 222 227 230 218 213 250 200 169 182 189 177 198 225 217 217 232 244 236 219 230 239 231 215 238 268 260 249 245 243 254 249 153 138 149 164 165 157 161 183 182 164 172 183 205 196 169
290 271 281 258 175 167 164 169 192 212 211 220 229 233 239 242 248 254 259 266 270 260 256 262 242 208 222 229 218 205 193 196 206 203 194 193 185 188 199 209 201 202 217 223 226 232 224 242 227 169 179 196 183 187 214 216 208 219 239 246 234 220 222 219 191 194 238 252 249 251 240 67 34 111 128 136 144 134 126 138 147 159 205 177 161 183 206 172
299 284 268 187 143 151 159 179 209 213 217 225 230 238 242 245 248 248 250 253 255 247 245 260 262 249 244 240 231 219 197 193 208 211 193 191 197 196 198 207 208 199 210 221 220 224 222 213 210 176 179 211 205 184 203 224 221 206 210 232 239 228 211 216 205 188 217 250 255 256 245 89 68 79 107 119 133 126 114 121 141 160 203 175 144 174 191 177
270 268 248 163 150 159 172 203 218 213 224 227 228 239 245 249 252 249 246 246 249 245 236 247 261 264 267 266 257 244 219 195 203 214 205 197 206 208 192 200 212 205 203 214 216 222 225 205 205 193 186 222 220 188 188 222 242 233 209 211 236 243 224 226 224 188 201 233 235 247 248 109 100 104 113 114 121 126 123 119 164 157 152 129 144 190 177 167
251 279 276 184 169 182 206 225 222 221 227 231 233 240 245 246 245 249 250 241 235 233 229 238 253 252 255 264 269 261 240 210 196 210 222 212 208 211 197 194 206 211 204 204 210 217 224 224 224 212 199 218 218 192 182 205 238 251 224 203 220 238 233 235 238 210 210 226 224 233 219 128 93 88 109 105 108 129 125 115 268 130 125 143 179 210 171 158
288 287 283 238 195 200 228 233 225 225 224 230 235 238 243 246 240 239 245 246 244 239 231 233 245 247 246 252 262 270 264 232 192 199 221 223 207 212 208 196 202 215 208 193 197 203 208 217 232 229 219 209 200 194 195 196 208 241 243 215 209 217 226 238 242 217 222 237 234 234 201 130 86 66 87 104 123 125 123 140 170 136 121 155 162 164 175 153
297 268 262 247 213 210 233 238 237 239 227 226 233 238 239 242 240 234 233 241 249 254 250 236 235 243 245 247 254 267 277 272 218 199 215 220 209 214 213 197 199 221 220 193 187 205 209 199 213 237 232 216 198 196 215 209 193 210 240 235 217 208 212 222 232 218 215 217 225 241 197 121 131 132 99 111 134 8 317 194 177 152 145 160 170 166 164 152
304 273 255 238 213 216 235 241 248 254 246 235 233 238 239 238 234 225 222 233 236 244 257 252 238 236 235 241 250 253 262 275 271 239 225 218 208 216 214 198 195 214 225 196 187 210 221 204 208 224 236 243 233 206 214 225 207 195 216 237 241 232 221 213 217 228 212 179 198 209 166 148 167 178 166 165 166 174 251 243 241 172 160 163 194 175 158 155
292 287 294 301 237 225 221 227 239 247 253 252 247 246 247 246 235 207 197 228 236 234 247 256 250 241 230 229 241 252 258 267 275 274 252 226 215 218 217 208 198 185 149 181 201 211 229 221 214 208 212 240 255 250 233 230 225 211 211 224 236 246 245 235 232 225 189 180 211 189 166 171 185 192 195 193 184 182 187 192 233 250 196 182 183 171 179 177
284 288 310 339 315 254 240 242 240 238 240 242 246 249 250 255 250 225 198 214 229 230 235 249 252 252 252 239 236 252 259 254 260 271 266 240 233 230 220 214 195 144 129 204 212 209 232 238 229 219 210 223 246 260 260 248 232 226 227 228 226 231 240 244 247 240 210 198 222 182 173 188 197 204 209 201 198 222 175 164 237 259 242 229 203 180 188 191
319 306 320 337 325 296 295 290 275 260 246 238 238 243 248 256 255 246 227 212 215 223 227 236 243 248 255 248 235 243 254 256 262 281 312 300 286 291 244 217 186 144 169 218 217 197 222 245 240 233 225 220 228 241 252 253 242 229 230 236 232 229 231 236 244 247 241 233 229 213 201 203 204 225 241 238 253 286 5 278 288 292 285 277 257 221 199 191
349 324 322 326 316 304 298 291 282 271 252 239 235 235 242 250 247 242 235 219 216 225 224 230 239 245 252 250 238 229 232 258 287 296 320 321 329 354 316 242 203 176 185 213 220 192 198 237 240 232 235 232 224 225 237 248 251 245 239 240 239 232 228 229 234 242 244 241 239 241 231 204 193 208 234 261 275 157 144 236 273 289 288 279 273 261 224 192
341 320 317 313 303 303 302 292 279 268 253 244 242 238 241 249 252 252 245 233 232 235 232 236 241 245 260 262 251 235 229 251 306 305 313 316 324 343 317 273 240 212 194 202 216 198 189 215 232 232 239 240 235 234 232 234 242 246 244 244 242 235 231 230 229 236 241 237 231 267 261 231 200 195 209 228 208 142 155 219 230 241 262 256 257 263 254 216
339 333 331 316 291 288 287 281 277 269 257 250 250 248 246 248 251 253 251 243 237 234 234 251 255 251 264 268 281 326 304 302 309 308 310 310 305 295 278 264 248 240 224 211 217 213 205 212 221 232 239 235 236 241 239 235 237 239 246 251 248 244 249 250 243 240 238 226 212 237 241 233 205 238 263 273 215 162 192 233 236 306 309 292 279 266 268 274